Terug naar catalogus

STARLINK-37137

ActiefCommunicatieSSO
NORAD 68384·PAYLOAD·🇺🇸 United States

Gelanceerd Mar 26, 2026 vanaf Vandenberg Space Force Base

Loading…

Volgende Passages (komende 24 uur)

TLE

VersSource: CelesTrak SupGP

Epoch: Sep 14, 2026, 21:09 UTC

1 68384C 26063E   26257.88173611  .00034153  00000+0  10600-2 0  2574
2 68384  97.2863  38.8733 0000723  83.1076 184.5052 15.33426948    16

Volg STARLINK-37137 in realtime met AllMySat

Download on the App Store